GSAT0101 (PRN E11)

Last updated on June 16, 2019, 3:38 a.m. UTC

1 37846U 11060A   19165.57774085 -.00000092  00000-0  00000+0 0  9992
2 37846  56.3768  51.4563 0004008 359.6959   0.3432  1.70475703 47611
UTC
Height (km)
Latitude
Longitude
Inclination
Orbital Period
UTC large
Height (km)
Speed (km/s)
/
Latitude / Longitude
Inclination (degrees)
Orbital Period (minutes)
Azimuth
Elevation
Range (km)
Doppler Factor
iOS Compass Heading
iOS Angle

Next 30 passes for location: Hong Kong

Rise time Rise Azimuth (degrees) Set time Set Azimuth (degrees) Duration Max altitude (degrees)

No matching passes for this satellites